TimeEDT,TemperatureF,Dew PointF,Humidity,Sea Level PressureIn,VisibilityMPH,Wind Direction,Wind SpeedMPH,Gust SpeedMPH,PrecipitationIn,Events,Conditions,WindDirDegrees,DateUTC
12:15 AM,43.0,28.0,56,30.16,10.0,WNW,5.8,-,N/A,,Scattered Clouds,300,2013-03-28 04:15:00
12:35 AM,41.9,28.0,58,30.16,10.0,NW,4.6,-,N/A,,Clear,310,2013-03-28 04:35:00
12:55 AM,41.2,28.0,60,30.16,10.0,WNW,3.5,-,N/A,,Clear,300,2013-03-28 04:55:00
1:15 AM,40.8,28.0,60,30.16,10.0,NW,6.9,-,N/A,,Clear,310,2013-03-28 05:15:00
1:35 AM,40.3,27.5,60,30.16,10.0,WNW,4.6,-,N/A,,Clear,300,2013-03-28 05:35:00
1:55 AM,40.5,27.1,59,30.16,10.0,WNW,5.8,-,N/A,,Clear,300,2013-03-28 05:55:00
2:15 AM,39.7,27.0,60,30.17,10.0,WNW,5.8,-,N/A,,Clear,300,2013-03-28 06:15:00
2:35 AM,39.4,26.6,60,30.16,10.0,NW,5.8,-,N/A,,Clear,310,2013-03-28 06:35:00
2:55 AM,38.8,26.6,61,30.17,10.0,WNW,6.9,-,N/A,,Clear,300,2013-03-28 06:55:00
3:15 AM,38.7,26.6,62,30.16,10.0,WNW,6.9,-,N/A,,Clear,300,2013-03-28 07:15:00
3:35 AM,37.9,26.6,64,30.16,10.0,NW,5.8,-,N/A,,Clear,310,2013-03-28 07:35:00
3:55 AM,37.6,26.8,65,30.16,10.0,NW,6.9,-,N/A,,Clear,310,2013-03-28 07:55:00
4:15 AM,37.8,27.0,65,30.16,10.0,NW,6.9,-,N/A,,Clear,320,2013-03-28 08:15:00
4:35 AM,37.4,26.6,65,30.15,10.0,NW,8.1,-,N/A,,Clear,310,2013-03-28 08:35:00
4:55 AM,36.7,27.0,68,30.15,10.0,NW,6.9,-,N/A,,Clear,320,2013-03-28 08:55:00
5:15 AM,36.5,27.0,68,30.15,10.0,NW,5.8,-,N/A,,Clear,320,2013-03-28 09:15:00
5:35 AM,36.0,26.6,69,30.15,10.0,NW,6.9,-,N/A,,Clear,320,2013-03-28 09:35:00
5:55 AM,36.0,26.8,69,30.15,10.0,NW,6.9,-,N/A,,Clear,320,2013-03-28 09:55:00
6:15 AM,36.0,27.0,70,30.15,10.0,NW,6.9,-,N/A,,Clear,320,2013-03-28 10:15:00
6:35 AM,35.2,27.1,72,30.16,10.0,NW,5.8,-,N/A,,Clear,310,2013-03-28 10:35:00
6:55 AM,35.6,27.5,72,30.16,10.0,NW,5.8,-,N/A,,Clear,320,2013-03-28 10:55:00
7:15 AM,35.4,27.5,73,30.17,10.0,NW,6.9,-,N/A,,Clear,310,2013-03-28 11:15:00
7:35 AM,36.1,28.0,72,30.17,10.0,NW,6.9,-,N/A,,Clear,320,2013-03-28 11:35:00
7:55 AM,37.4,28.4,70,30.18,10.0,NW,8.1,-,N/A,,Clear,310,2013-03-28 11:55:00
8:15 AM,38.7,28.9,68,30.18,10.0,NW,9.2,-,N/A,,Clear,310,2013-03-28 12:15:00
8:35 AM,40.1,29.3,65,30.18,10.0,NW,10.4,16.1,N/A,,Clear,320,2013-03-28 12:35:00
8:55 AM,41.4,29.3,62,30.18,10.0,NW,10.4,17.3,N/A,,Clear,320,2013-03-28 12:55:00
9:15 AM,43.0,29.7,59,30.18,10.0,NW,10.4,-,N/A,,Clear,310,2013-03-28 13:15:00
9:35 AM,43.7,29.1,57,30.18,10.0,WNW,10.4,-,N/A,,Clear,300,2013-03-28 13:35:00
9:55 AM,45.5,29.3,53,30.19,10.0,NNW,9.2,-,N/A,,Clear,330,2013-03-28 13:55:00
10:15 AM,46.6,29.1,51,30.19,10.0,WNW,11.5,-,N/A,,Clear,300,2013-03-28 14:15:00
10:35 AM,47.5,28.4,48,30.18,10.0,NW,11.5,17.3,N/A,,Clear,310,2013-03-28 14:35:00
10:55 AM,48.6,28.8,46,30.18,10.0,WNW,12.7,17.3,N/A,,Clear,300,2013-03-28 14:55:00
11:15 AM,49.1,27.9,44,30.18,10.0,WNW,11.5,-,N/A,,Clear,300,2013-03-28 15:15:00
11:55 AM,51.3,27.0,39,30.18,10.0,NW,11.5,17.3,N/A,,Clear,310,2013-03-28 15:55:00
12:15 PM,52.0,26.2,37,30.17,10.0,WNW,10.4,17.3,N/A,,Clear,290,2013-03-28 16:15:00
12:35 PM,52.3,26.4,37,30.17,10.0,West,13.8,18.4,N/A,,Scattered Clouds,280,2013-03-28 16:35:00
12:55 PM,52.5,25.9,36,30.16,10.0,WNW,12.7,19.6,N/A,,Scattered Clouds,290,2013-03-28 16:55:00
1:15 PM,53.6,25.5,34,30.15,10.0,NW,9.2,18.4,N/A,,Scattered Clouds,310,2013-03-28 17:15:00
1:35 PM,54.0,25.0,33,30.15,10.0,NW,11.5,21.9,N/A,,Scattered Clouds,320,2013-03-28 17:35:00
1:55 PM,54.9,24.8,31,30.14,10.0,WNW,11.5,19.6,N/A,,Scattered Clouds,300,2013-03-28 17:55:00
2:15 PM,53.2,23.9,32,30.14,10.0,NW,13.8,19.6,N/A,,Scattered Clouds,320,2013-03-28 18:15:00
2:35 PM,53.8,24.6,32,30.14,10.0,NW,12.7,16.1,N/A,,Mostly Cloudy,310,2013-03-28 18:35:00
2:55 PM,54.7,24.3,31,30.13,10.0,NW,10.4,17.3,N/A,,Mostly Cloudy,310,2013-03-28 18:55:00
3:15 PM,54.1,24.3,31,30.13,10.0,NNW,11.5,20.7,N/A,,Mostly Cloudy,330,2013-03-28 19:15:00
3:35 PM,54.1,24.1,31,30.12,10.0,WNW,9.2,-,N/A,,Mostly Cloudy,290,2013-03-28 19:35:00
3:55 PM,54.5,24.6,31,30.12,10.0,NW,11.5,23.0,N/A,,Mostly Cloudy,310,2013-03-28 19:55:00
4:15 PM,54.0,25.5,33,30.12,10.0,NW,9.2,-,N/A,,Scattered Clouds,310,2013-03-28 20:15:00
4:35 PM,55.4,24.3,30,30.12,10.0,WNW,10.4,20.7,N/A,,Scattered Clouds,300,2013-03-28 20:35:00
4:55 PM,55.2,24.1,30,30.12,10.0,NW,13.8,20.7,N/A,,Scattered Clouds,310,2013-03-28 20:55:00
5:15 PM,53.4,24.3,32,30.13,10.0,NW,10.4,-,N/A,,Mostly Cloudy,320,2013-03-28 21:15:00
5:35 PM,52.9,24.6,33,30.13,10.0,NW,8.1,-,N/A,,Mostly Cloudy,310,2013-03-28 21:35:00
5:55 PM,54.5,25.3,32,30.14,10.0,NNW,11.5,-,N/A,,Overcast,340,2013-03-28 21:55:00
6:15 PM,53.6,24.6,33,30.14,10.0,NNW,6.9,-,N/A,,Overcast,340,2013-03-28 22:15:00
6:35 PM,52.7,25.9,35,30.15,10.0,NNW,6.9,-,N/A,,Overcast,340,2013-03-28 22:35:00
6:55 PM,52.7,25.5,35,30.15,10.0,NNW,8.1,-,N/A,,Mostly Cloudy,330,2013-03-28 22:55:00
7:15 PM,50.9,25.5,37,30.16,10.0,NNW,6.9,-,N/A,,Scattered Clouds,340,2013-03-28 23:15:00
7:35 PM,49.3,25.5,40,30.17,10.0,NNW,5.8,-,N/A,,Clear,330,2013-03-28 23:35:00
7:55 PM,48.6,25.7,41,30.18,10.0,NNW,4.6,-,N/A,,Mostly Cloudy,330,2013-03-28 23:55:00
8:15 PM,48.6,26.1,42,30.18,10.0,NNW,4.6,-,N/A,,Overcast,330,2013-03-29 00:15:00
8:35 PM,47.3,27.0,45,30.19,10.0,Calm,Calm,-,N/A,,Scattered Clouds,0,2013-03-29 00:35:00
8:55 PM,46.4,27.1,47,30.20,10.0,North,4.6,-,N/A,,Scattered Clouds,360,2013-03-29 00:55:00
9:15 PM,46.4,28.4,50,30.21,10.0,North,4.6,-,N/A,,Mostly Cloudy,350,2013-03-29 01:15:00
9:35 PM,46.4,27.7,48,30.22,10.0,North,4.6,-,N/A,,Mostly Cloudy,360,2013-03-29 01:35:00
9:55 PM,45.5,28.0,51,30.22,10.0,North,4.6,-,N/A,,Scattered Clouds,360,2013-03-29 01:55:00
10:15 PM,45.0,27.3,50,30.23,10.0,North,4.6,-,N/A,,Clear,10,2013-03-29 02:15:00
10:35 PM,43.0,28.2,56,30.23,10.0,North,3.5,-,N/A,,Clear,10,2013-03-29 02:35:00
10:55 PM,42.6,28.6,58,30.24,10.0,North,3.5,-,N/A,,Clear,360,2013-03-29 02:55:00
11:15 PM,43.0,28.0,56,30.24,10.0,NNW,3.5,-,N/A,,Clear,340,2013-03-29 03:15:00
11:35 PM,41.7,27.5,57,30.25,10.0,Calm,Calm,-,N/A,,Clear,0,2013-03-29 03:35:00
11:55 PM,37.8,29.3,72,30.25,10.0,Calm,Calm,-,N/A,,Clear,0,2013-03-29 03:55:00